Location: Arclight Observatory
(36.5667°N, 87.3333°W)
Time: 22:11:44
(UTC-05:00)

Daily predictions for brighter satellites

Satellite Brightness Start Highest point End
(mag) Time Altitude Azimuth Time Altitude Azimuth Time Altitude Azimuth
Cosmos 1766 3.2 18:51:06 10° S 18:55:02 79° E 18:59:02 10° N
IDEFIX/ARIANE 42P 3.5 18:55:46 10° S 19:00:52 55° W 19:06:02 10° NNW
Cosmos 1437 4.0 18:59:24 10° NNW 19:02:34 47° W 19:05:43 10° S
Timation 1 Rocket 4.3 18:57:22 10° NNW 19:03:21 80° ENE 19:09:19 10° SSE
NOSS 3-2 (A) 4.3 18:58:02 10° SW 19:03:55 54° NW 19:10:20 10° NNE
Atlas Centaur 2 4.4 18:57:49 10° W 19:05:10 34° SSW 19:12:30 10° SE
Meteor 1-28 Rocket 3.3 19:05:47 10° NNE 19:09:24 49° E 19:12:59 10° S
Meteor 1-29 4.4 19:08:27 10° NE 19:11:00 19° E 19:13:32 10° SE
GPS 2-04 Rocket1 2.6 19:08:41 10° WSW 19:12:03 55° SSE 19:15:05 13° E
SEDSat Delta rocket 4.5 19:07:04 10° W 19:13:19 54° S 19:19:42 11° ESE
NOAA 12 4.2 19:10:32 10° SSE 19:15:39 56° ENE 19:20:49 10° N
SAR-Lupe-1 4.0 19:13:29 10° SSE 19:16:58 59° ENE 19:20:29 10° N
ASTEX 1 4.5 19:15:20 10° NE 19:19:05 22° E 19:22:48 10° SE
Cosmos 1805 3.2 19:16:47 10° S 19:20:40 68° E 19:24:35 10° NNE
Cosmos 1452 Rocket 3.4 19:16:15 10° NNW 19:21:32 76° ENE 19:26:45 10° SSE
Cosmos 1743 Rocket 4.2 19:17:37 10° NNE 19:21:37 32° ENE 19:25:33 10° SE
ALOS 3.5 19:20:14 11° ESE 19:23:32 22° ENE 19:27:06 10° NNE
Cosmos 1943 3.7 19:22:09 10° S 19:27:15 36° ESE 19:32:21 10° NE
Cosmos 2369 Rocket 3.3 19:23:24 10° N 19:28:02 25° ENE 19:31:02 17° E
Resurs 01 Rocket 2.0 19:24:23 10° SE 19:28:35 43° ENE 19:32:47 10° N
SL-8 R/B 4.1 19:24:36 10° WSW 19:29:20 61° NNW 19:34:05 10° NE
CENTAUR R/B 2.6 19:23:44 10° S 19:29:22 49° ESE 19:35:40 10° NE
Helios 1B rocket 2.6 19:27:16 10° NNE 19:31:16 48° E 19:35:14 10° S
Gbstr 26 Del rocket 3.1 19:27:13 10° SW 19:31:23 67° SE 19:36:27 10° NE
Cosmos 1953 2.4 19:30:20 10° S 19:34:18 77° W 19:38:18 10° N
Cosmos 1603 3.9 19:28:42 10° SSW 19:34:25 80° WNW 19:40:12 10° NNE
ISS -2.5 19:31:41 10° WSW 19:34:50 50° NW 19:37:49 11° NE
Meteor 2-12 Rocket 4.4 19:29:54 10° S 19:36:03 80° E 19:42:13 10° N
Cosmos 1733 3.9 19:35:37 10° SSE 19:39:05 32° E 19:42:32 10° NNE
Cosmos 1420 Rocket 4.0 19:35:25 10° N 19:40:41 62° ENE 19:45:56 10° SSE
BREEZE-M TANK 4.0 19:37:50 10° WNW 19:45:49 42° SW 19:48:40 12° SSE
Cosmos 1470 2.8 19:42:26 10° S 19:46:11 50° E 19:49:57 10° NNE
Nadezhda 4 Rocket 3.9 19:43:04 10° N 19:49:19 70° E 19:55:28 10° SSE
Cosmos 1674 2.9 19:45:40 10° N 19:49:25 47° E 19:51:28 24° SE
Spot 2 Rocket 3.4 19:47:26 10° SSE 19:52:27 82° ENE 19:57:31 10° N
GP-B 4.0 19:49:42 10° NNE 19:52:56 28° ENE 19:52:56 28° ENE
ASTRO E2 4.4 19:52:04 10° WSW 19:55:22 24° SSW 19:57:04 18° SSE
Cosmos 1048 Rocket 4.1 19:51:41 10° SSW 19:56:59 77° WNW 20:02:15 10° NNE
Cosmos 1092 Rocket 3.9 19:53:12 10° N 19:59:20 60° E 20:05:22 10° SSE
Cosmos-2242 4.2 19:55:19 10° SSW 19:59:30 45° W 20:03:45 10° N
ATLAS 5 CENTAUR R/B 4.2 19:57:00 10° W 20:00:48 22° NW 20:04:49 10° N
SJ-6B 4.5 19:58:28 10° SSW 20:02:09 36° W 20:05:55 10° NNW
Cosmos 2151 4.0 19:58:45 10° NNE 20:01:36 29° NE 20:01:36 29° NE
HJ-1C 3.8 19:59:27 10° S 20:02:46 61° W 20:06:07 10° NNW
Cosmos 1346 4.4 20:04:35 10° NNW 20:07:23 39° W 20:09:55 12° SSW
Cosmos 1174 4.1 20:03:51 10° SSW 20:08:48 76° WNW 20:12:05 15° NNE
Cosmos 158 Rocket 3.7 20:03:57 10° SSW 20:08:49 81° ESE 20:13:43 10° NNE
Cosmos 1655 Rocket 4.5 20:03:58 10° NNE 20:09:36 35° ENE 20:10:10 35° E
Meteor 1-16 Rocket 4.2 20:04:57 10° SSE 20:09:59 46° E 20:15:02 10° NNE
Cosmos 2026 Rocket 4.3 20:04:33 10° N 20:10:16 40° ENE 20:11:21 37° ESE
FengYun 1-2 T 4.2 20:07:08 10° SSE 20:12:39 86° WSW 20:18:10 10° NNW
Cosmos 1634 Rocket 3.9 20:06:37 10° S 20:12:47 68° E 20:18:56 10° NNE
USA 215 3.3 20:10:09 10° NE 20:16:43 82° NW 20:23:14 10° SW
CZ-4B DEB 3.9 20:22:25 38° NNW 20:22:25 38° NNW 20:24:33 10° NNW
OAO 3 Rocket 3.6 20:19:27 10° W 20:24:03 49° SSW 20:24:38 46° S
Meteor 1-11 4.4 20:19:34 10° N 20:25:11 49° ENE 20:25:15 49° E
OAO 1 Rocket 4.5 20:20:12 10° W 20:25:31 66° S 20:26:24 56° SE
Cosmos 1500 Rocket 4.2 20:25:31 10° NNW 20:29:52 57° W 20:32:52 19° SSW
Cosmos 2195 Rocket 4.4 20:26:19 10° N 20:32:38 72° E 20:34:51 43° SSE
FENGYUN 3A 3.8 20:32:29 23° S 20:35:56 71° WSW 20:41:20 10° NNW
CZ-2D R/B 4.1 20:41:50 48° NW 20:41:50 48° NW 20:44:54 10° NNW
Cosmos 1110 Rocket 4.2 20:45:51 10° NNW 20:50:19 63° N 20:50:19 63° N
H-2A R/B 4.3 20:52:21 35° WNW 20:52:21 35° WNW 20:55:04 10° NNW
ALOS 3.8 20:58:48 23° SW 21:00:45 32° W 21:04:57 10° NNW
Cosmos 1943 Rocket 3.0 20:58:57 10° NNW 21:02:44 42° N 21:02:44 42° N
Cosmos 2251 Rocket 4.2 21:01:36 10° SW 21:06:39 50° WNW 21:11:46 10° N
Cosmos 2369 Rocket 3.1 21:06:52 10° NW 21:12:11 42° WSW 21:12:52 40° SW
CENTAUR R/B 4.2 21:14:58 10° WSW 21:20:17 30° NW 21:26:09 10° NNE
